Regional Weather Roundup
Issued by NWS Kansas City/Pleasant Hill, MO

Home | Current Version | Previous Version | Graphics & Text | Print | Product List | Glossary Off
Versions: 1 2 3 4 5 6 7 8 9 10 11 12 13 14 15 16 17 18 19 20 21 22 23 24 25 26 27 28 29 30 31 32 33 34 35 36 37 38 39 40 41 42 43 44 45 46 47 48 49 50

000
ASUS43 KEAX 272204
RWREAX

WEATHER ROUNDUP FOR EASTERN KANSAS AND NORTHWEST MISSOURI
NATIONAL WEATHER SERVICE KANSAS CITY/PLEASANT HILL MO
500 PM CDT SUN JUL 27 2014

KSZ040-057-103>105-MOZ028-029-037-043-272300-
...KANSAS CITY METROPOLITAN AREA...

CITY           SKY/WX    TMP DP  RH WIND       PRES   REMARKS
K.C. INTL      MOSUNNY   85  57  38 NW15G28   30.06S
K.C. DOWNTOWN  MOSUNNY   88  55  32 N14G29    30.03F
LEES SUMMIT    PTSUNNY   86  53  32 NW18G26   30.05S
OLATHE - IXD   MOSUNNY   88  53  30 NW12      30.06F
OLATHE - OJC   MOSUNNY   88  52  29 N14       30.05F
LAWRENCE       MOSUNNY   88  57  34 N15       30.06S

$$

MOZ001>008-011>017-020>025-030>033-038>040-044>046-053-054-272300-
...NORTHERN AND CENTRAL MISSOURI...

CITY           SKY/WX    TMP DP  RH WIND       PRES   REMARKS
ST. JOSEPH     SUNNY     85  60  42 N15G22    30.05S HAZE
MOSBY          CLEAR     84  55  37 NW16      30.03F
WHITEMAN AFB   MOSUNNY   87  42  20 NW13G18   30.02S
CLINTON        PTSUNNY   88  61  40 NW14      30.03S
SEDALIA        MOSUNNY   86  57  37 NW14G26   30.02S
WARSAW         NOT AVBL
MARSHALL       SUNNY     88  61  40 NW17G25   30.01S
CHILLICOTHE      N/A     84  57  39 NW13G20   30.02R
KIRKSVILLE     MOSUNNY   83  58  42 NW13G25   29.99R

$$

MOZ041-047>049-056>058-063>065-088>090-097-272300-
...EASTERN AND SOUTHERN MISSOURI...

CITY           SKY/WX    TMP DP  RH WIND       PRES   REMARKS
ST. LOUIS INTL MOSUNNY   91  58  32 W25G31    29.89S HX  90
SPIRIT OF STL  SUNNY     91  58  32 NW15      29.89R HX  90
COLUMBIA       MOSUNNY   88  55  32 W17G26    29.97S
JEFFERSON CITY MOSUNNY   88  54  31 W17G26    29.95S
HANNIBAL       SUNNY     84  54  34 N14G24    29.94R
ROLLA          MOSUNNY   89  51  27 W23       29.96R
LEBANON        PTSUNNY   88  57  35 NW10      30.03R
OSAGE BEACH      N/A     88  55  33 NW7       29.99R
SPRINGFIELD    CLOUDY    87  61  41 NW8       30.05R
BRANSON        CLOUDY    86  72  62 W5        30.06R HX  92
NEVADA         PTSUNNY   86  63  45 NW7       30.06S
JOPLIN         LGT RAIN  82  71  69 W5        30.07F
WEST PLAINS    PTSUNNY   88  62  41 NW7       30.00R
MALDEN         PTSUNNY   93  79  62 SW13      29.89S HX 110

$$

IAZ060-094-KSZ022-034>040-054-083-096-NEZ052-066-093-272300-
...KANSAS...SOUTHEAST NEBRASKA AND IOWA...

CITY           SKY/WX    TMP DP  RH WIND       PRES   REMARKS
TOPEKA         MOSUNNY   91  54  28 NW13G29   30.06F
MANHATTAN      MOSUNNY   91  51  25 N14G22    30.09S
EMPORIA        PTSUNNY   89  49  25 N14G21    30.08F
CHANUTE        CLOUDY    87  58  37 N13       30.07F
WICHITA        MOSUNNY   91  55  29 N13       30.09F
OMAHA          MOSUNNY   80  56  43 NW20G29   30.09R
LINCOLN        MOSUNNY   86  55  34 N21G28    30.12S
LAMONI         PTSUNNY   77  57  50 NW20G26   30.04R
DES MOINES     PTSUNNY   78  57  48 NW22G31   30.01S

$$



USA.gov is the U.S. government's official web portal to all federal, state and local government web resources and services.